Stations météo

réclame
Mon MeteoGroup
Bonn-Roleber, Allemagne (10519): Température de l'air & dewpoint: 14.07.2019 13:00:00 - 20.07.2019 13:00:00 (CEST)Bonn-Roleber, Allemagne (10519): Température de l'air 5cm & Température de l'air -5cm: 14.07.2019 13:00:00 - 20.07.2019 13:00:00 (CEST)Bonn-Roleber, Allemagne (10519): Température de l'air -20cm & Température de l'air -100cm: 14.07.2019 13:00:00 - 20.07.2019 13:00:00 (CEST)Bonn-Roleber, Allemagne (10519): Vitesse du vent & gusts: 14.07.2019 13:00:00 - 20.07.2019 13:00:00 (CEST)Bonn-Roleber, Allemagne (10519): Direction du vent: 14.07.2019 13:00:00 - 20.07.2019 13:00:00 (CEST)Bonn-Roleber, Allemagne (10519): reduced air pressure: 14.07.2019 13:00:00 - 20.07.2019 13:00:00 (CEST)Bonn-Roleber, Allemagne (10519): visibility: 14.07.2019 13:00:00 - 20.07.2019 13:00:00 (CEST)Bonn-Roleber, Allemagne (10519): Ensoleillement: 14.07.2019 13:00:00 - 20.07.2019 13:00:00 (CEST)Bonn-Roleber, Allemagne (10519): Quantités de précipitations: 14.07.2019 13:00:00 - 20.07.2019 13:00:00 (CEST)
Date & Time tt [°C] td [°C] tt 5cm [°C] tt -5cm [°C] tt -20cm [°C] tt -100cm [°C] ff [km/h] ff [knt] fx [km/h] fx [knt] dd ppp [hPa] vv [km] sd [min] rr [mm]
20.07.2019 13:00:00 27,3 15,5 30,6 28,0 21,6 17,9 13 7 24 13 SSE 1010,7 60 13 0,0
20.07.2019 12:00:00 27,5 14,9 31,2 27,8 20,8 17,9 14 8 26 14 S 1010,9 47 41 0,0
20.07.2019 11:00:00 26,5 14,7 29,6 26,0 20,2 17,9 13 7 27 15 SSW 1011,2 29 58 0,0
20.07.2019 10:00:00 24,2 14,4 26,1 23,3 19,7 17,9 16 9 31 17 S 1011,3 38 55 0,0
20.07.2019 09:00:00 22,9 14,4 24,7 20,1 19,6 17,9 17 9 28 15 S 1011,5 30 60 0,0
20.07.2019 08:00:00 21,5 14,3 20,5 17,9 19,7 17,9 16 8 27 15 S 1011,8 35 60 0,0
20.07.2019 07:00:00 19,1 13,9 17,9 17,5 20,0 17,9 13 7 28 15 S 1012,1 39 30 0,0
20.07.2019 06:00:00 19,3 13,9 17,5 17,4 20,2 17,9 15 8 25 14 SSE 1012,2 56 0 0,0
20.07.2019 05:00:00 18,7 13,7 17,0 17,5 20,5 17,8 10 5 16 9 S 1012,8 49 0 0,0
20.07.2019 04:00:00 18,1 13,6 16,3 17,8 20,9 17,8 9 5 17 9 S 1013,0 47 0 0,0
20.07.2019 03:00:00 15,6 12,9 13,5 18,3 21,2 17,8 7 4 11 6 SE 1013,5 40 0 0,0
20.07.2019 02:00:00 16,5 13,1 14,6 18,9 21,6 17,8 5 3 10 6 S 1014,0 41 0 0,0
20.07.2019 01:00:00 17,7 13,0 14,9 19,5 22,0 17,8 7 4 11 6 S 1014,2 54 0 0,0
20.07.2019 00:00:00 17,7 13,2 15,5 20,3 22,4 17,8 8 4 10 5 SSW 1014,3 55 0 0,0
19.07.2019 23:00:00 18,1 12,7 15,8 21,2 22,9 17,8 6 3 8 4 SSW 1014,5 52 0 0,0
19.07.2019 22:00:00 19,4 12,2 17,0 22,6 23,2 17,8 5 3 9 5 SSW 1014,2 30 0 0,0
19.07.2019 21:00:00 21,2 11,8 19,4 24,3 23,5 17,8 2 1 9 5 SSW 1013,8 53 0 0,0
19.07.2019 20:00:00 23,6 10,3 22,4 26,3 23,6 17,8 7 4 14 8 SSW 1013,5 70 36 0,0
19.07.2019 19:00:00 24,8 10,3 26,4 27,9 23,5 17,8 4 2 11 6 ENE 1013,4 70 31 0,0
19.07.2019 18:00:00 24,3 11,6 25,7 28,9 23,4 17,8 7 4 13 7 WNW 1013,8 70 24 0,0
19.07.2019 17:00:00 24,2 10,4 26,6 29,3 23,0 17,8 4 2 16 8 WNW 1014,1 61 23 0,0
19.07.2019 16:00:00 24,4 11,1 27,9 30,2 22,5 17,8 4 2 19 11 W 1014,2 60 50 0,0
19.07.2019 15:00:00 24,2 11,2 27,6 29,9 21,9 17,8 6 3 22 12 SW 1014,3 57 47 0,0
19.07.2019 14:00:00 24,7 9,6 29,3 28,5 21,3 17,8 6 3 23 12 W 1014,2 49 48 0,0
19.07.2019 13:00:00 22,5 12,3 26,1 27,2 20,7 17,8 8 4 24 13 W 1014,3 70 53 0,0
19.07.2019 12:00:00 21,9 15,3 23,4 25,5 20,1 17,8 13 7 21 12 SSE 1014,4 43 47 0,0
19.07.2019 11:00:00 21,1 17,0 23,1 23,5 19,7 17,8 9 5 15 8 SSE 1014,5 27 33 0,0
19.07.2019 10:00:00 18,8 16,9 19,6 20,9 19,5 17,8 8 4 15 8 SSW 1014,8 17 3 0,0
19.07.2019 09:00:00 17,9 16,2 18,2 19,6 19,5 17,8 7 4 15 8 SSW 1014,4 13 0 0,0
19.07.2019 08:00:00 16,8 15,8 16,9 18,7 19,6 17,8 7 4 11 6 S 1014,2 15 0 0,0
19.07.2019 07:00:00 16,2 15,6 16,2 18,2 19,7 17,8 5 3 9 5 S 1014,2 8 0 0,3
19.07.2019 06:00:00 16,1 15,6 16,0 18,2 19,9 17,8 6 3 11 6 SW 1014,3 1,7 0 2,4
19.07.2019 05:00:00 16,2 15,4 16,0 18,5 20,1 17,8 4 2 9 5 SSW 1014,0 1,8 0 0,1
19.07.2019 04:00:00 16,3 15,2 15,8 18,8 20,4 17,8 5 3 14 7 SSW 1013,7 14 0 0,8
19.07.2019 03:00:00 16,9 14,3 15,6 19,1 20,6 17,8 4 2 9 5 SW 1013,4 25 0 0,2
19.07.2019 02:00:00 16,7 14,6 15,4 19,5 20,9 17,8 4 2 8 4 SW 1013,5 18 0 0,1
19.07.2019 01:00:00 17,6 14,3 16,1 20,0 21,1 17,8 4 2 11 6 WSW 1013,7 15 0 0,2
19.07.2019 00:00:00 18,3 13,6 17,4 20,6 21,4 17,8 4 2 6 3 NW 1013,0 46 0 0,0
18.07.2019 23:00:00 19,0 13,4 16,9 21,2 21,6 17,8 5 3 15 8 NW 1012,9 44 0 0,1
18.07.2019 22:00:00 20,1 12,9 18,4 22,0 21,8 17,8 5 3 22 12 WNW 1012,4 49 0 0,0
18.07.2019 21:00:00 21,9 12,6 21,2 23,2 22,0 17,8 8 4 16 9 W 1011,6 46 0 0,0
18.07.2019 20:00:00 22,9 13,0 23,2 24,0 22,1 17,8 6 3 9 5 SSW 1011,2 45 2 0,0
18.07.2019 19:00:00 23,0 11,7 23,1 24,4 22,1 17,8 5 3 32 18 S 1011,2 50 0 0,0
18.07.2019 18:00:00 23,1 11,0 23,5 25,5 22,1 17,8 12 6 32 17 SSW 1011,5 46 5 0,0
18.07.2019 17:00:00 24,8 13,5 27,8 25,8 22,1 17,8 4 2 10 6 N 1011,1 43 1 0,0
18.07.2019 16:00:00 22,3 14,6 23,9 26,2 21,9 17,8 6 3 26 14 WNW 1011,3 27 0 0,2
18.07.2019 15:00:00 24,7 11,6 25,2 29,2 21,3 17,8 3 1 16 9 SSW 1010,9 28 26 0,0
18.07.2019 14:00:00 25,4 9,9 31,6 29,1 20,5 17,8 7 4 14 8 NNW 1011,1 26 37 0,0
18.07.2019 13:00:00 24,6 11,7 28,4 28,8 19,6 17,8 8 5 17 9 NW 1011,4 29 41 0,0
18.07.2019 12:00:00 24,0 10,2 29,2 26,3 18,8 17,8 7 4 20 11 W 1011,5 32 57 0,0
18.07.2019 11:00:00 23,4 9,2 27,8 23,7 18,1 17,8 8 4 13 7 S 1011,7 28 60 0,0
18.07.2019 10:00:00 20,5 12,8 23,8 20,4 17,7 17,8 5 3 10 5 SE 1012,0 25 60 0,0
18.07.2019 09:00:00 17,9 13,0 20,3 17,4 17,6 17,8 3 2 6 3 E 1012,3 16 39 0,0
18.07.2019 08:00:00 14,8 12,5 14,9 15,6 17,7 17,8 3 2 5 3 SE 1012,4 13 24 0,0
18.07.2019 07:00:00 11,9 11,0 11,3 14,8 17,9 17,8 2 1 6 3 E 1012,6 10 0 0,0
18.07.2019 06:00:00 10,9 10,1 9,6 14,8 18,1 17,8 4 2 10 5 ESE 1012,8 9 0 0,0
18.07.2019 05:00:00 12,0 11,2 10,9 15,2 18,4 17,8 5 3 8 4 E 1013,0 13 0 0,0
18.07.2019 04:00:00 12,2 11,5 10,8 15,4 18,7 17,8 6 4 9 5 ENE 1013,2 13 0 0,0
18.07.2019 03:00:00 11,9 11,2 9,4 15,6 19,1 17,8 5 3 7 4 S 1013,6 13 0 0,0
18.07.2019 02:00:00 11,8 10,8 9,3 16,1 19,4 17,8 5 3 9 5 SSE 1013,9 14 0 0,0
18.07.2019 01:00:00 12,6 11,4 9,5 16,9 19,8 17,8 6 3 10 5 ESE 1013,8 16 0 0,0
18.07.2019 00:00:00 13,2 11,8 10,6 17,8 20,2 17,8 5 3 6 4 ESE 1014,0 13 0 0,0
17.07.2019 23:00:00 14,2 12,0 12,0 18,8 20,6 17,8 4 2 6 4 ESE 1014,1 15 0 0,0
17.07.2019 22:00:00 14,9 11,8 12,0 20,2 21,0 17,8 5 3 8 5 E 1014,2 14 0 0,0
17.07.2019 21:00:00 18,1 11,9 16,1 22,2 21,1 17,9 5 3 11 6 NE 1013,9 15 48 0,0
17.07.2019 20:00:00 19,5 11,6 19,6 24,5 21,1 17,9 6 3 15 8 NNE 1013,8 14 60 0,0
17.07.2019 19:00:00 20,1 11,4 22,3 26,1 20,8 17,9 8 5 20 11 N 1013,9 13 55 0,0
17.07.2019 18:00:00 20,4 11,4 24,3 27,1 20,3 17,9 9 5 17 9 N 1014,4 16 55 0,0
17.07.2019 17:00:00 20,3 10,8 24,7 26,9 19,6 17,9 6 3 19 11 N 1014,8 15 54 0,0
17.07.2019 16:00:00 19,6 11,0 25,0 25,4 19,1 17,9 7 4 21 11 NNE 1015,3 10 32 0,0
17.07.2019 15:00:00 18,5 11,2 22,3 23,1 18,7 17,9 9 5 17 9 N 1015,7 8 1 0,0
17.07.2019 14:00:00 17,7 11,1 20,5 22,0 18,3 17,9 10 5 16 8 N 1016,0 8 0 0,0
17.07.2019 13:00:00 17,0 11,4 19,9 21,2 17,9 17,9 8 4 16 9 NNE 1016,4 7 0 0,0
17.07.2019 12:00:00 16,6 10,8 19,6 20,3 17,6 17,9 5 3 11 6 NE 1016,4 7 0 0,0
17.07.2019 11:00:00 16,4 11,4 18,5 19,3 17,2 17,9 6 3 13 7 ENE 1016,3 9 0 0,0
17.07.2019 10:00:00 15,9 11,0 18,2 18,7 16,9 17,9 5 3 10 5 NE 1016,5 7 19 0,0
17.07.2019 09:00:00 14,6 11,2 16,1 16,7 16,7 17,9 3 2 5 3 E 1016,5 4,9 20 0,0
17.07.2019 08:00:00 12,8 11,7 13,9 14,6 16,8 17,9 2 1 4 2 W 1016,7 3,9 1 0,0
17.07.2019 07:00:00 10,7 10,3 10,6 13,2 17,0 17,9 2 1 5 3 ENE 1016,8 1,9 0 0,0
17.07.2019 06:00:00 8,7 8,5 5,7 12,8 17,4 17,9 0 0 3 2 WSW 1017,2 0,2 0 0,0
17.07.2019 05:00:00 8,9 8,5 6,0 13,3 17,7 17,9 0 0 4 2 N 1017,1 1,1 0 0,0
17.07.2019 04:00:00 9,3 8,8 6,7 13,9 18,1 18,0 3 2 4 2 S 1017,1 3,7 0 0,0
17.07.2019 03:00:00 10,1 9,6 7,4 14,5 18,4 18,0 0 0 4 2 N 1017,6 2,7 0 0,0
17.07.2019 02:00:00 10,5 9,6 8,4 15,1 18,8 18,0 0 0 5 3 N 1017,6 5 0 0,0
17.07.2019 01:00:00 11,3 10,1 9,2 15,8 19,2 18,0 0 0 6 4 N 1017,6 7 0 0,0
17.07.2019 00:00:00 12,2 10,4 8,7 16,7 19,7 18,0 4 2 7 4 NW 1017,8 17 0 0,0
16.07.2019 23:00:00 12,2 10,2 9,7 17,9 20,0 18,0 3 2 5 3 WNW 1017,7 26 0 0,0
16.07.2019 22:00:00 15,4 10,5 12,2 19,5 20,3 18,0 4 2 9 5 NW 1017,5 33 11 0,0
16.07.2019 21:00:00 17,4 10,2 15,8 21,2 20,5 18,0 4 2 16 8 NNW 1017,4 33 19 0,0
16.07.2019 20:00:00 18,6 9,8 18,6 23,5 20,4 18,0 7 4 19 10 NW 1017,4 26 60 0,0
16.07.2019 19:00:00 18,7 9,4 20,7 24,9 20,1 18,1 9 5 22 12 NNW 1017,6 19 60 0,0
16.07.2019 18:00:00 18,7 9,1 22,0 26,4 19,6 18,1 10 5 21 11 NNW 1017,9 17 60 0,0
16.07.2019 17:00:00 18,4 8,9 22,8 26,5 18,9 18,1 8 4 19 11 NNW 1018,4 17 60 0,0
16.07.2019 16:00:00 18,3 9,9 23,4 24,9 18,3 18,1 8 4 21 12 N 1018,7 12 38 0,0
16.07.2019 15:00:00 17,0 9,4 20,9 22,5 17,8 18,1 12 6 22 12 NNW 1019,0 16 8 0,0
16.07.2019 14:00:00 16,5 9,3 19,1 20,3 17,4 18,1 9 5 19 11 WNW 1019,3 12 1 0,0
16.07.2019 13:00:00 15,5 9,5 17,4 18,7 17,2 18,1 8 4 16 8 WNW 1019,6 15 0 0,0
16.07.2019 12:00:00 14,8 9,4 16,1 17,7 17,0 18,1 8 5 19 10 WNW 1019,8 17 0 0,0
16.07.2019 11:00:00 14,3 9,5 15,3 16,9 16,9 18,1 10 5 20 11 WNW 1019,9 16 0 0,0
16.07.2019 10:00:00 13,8 9,8 14,9 16,2 16,8 18,1 6 3 14 7 WNW 1019,9 19 0 0,0
16.07.2019 09:00:00 13,2 9,9 13,7 15,4 16,8 18,1 4 2 8 5 WNW 1019,9 20 0 0,0
16.07.2019 08:00:00 12,7 10,0 13,2 14,8 16,9 18,1 3 2 5 3 W 1019,7 20 0 0,0
16.07.2019 07:00:00 11,8 9,6 12,0 13,9 17,0 18,1 4 2 7 4 WNW 1019,6 22 0 0,0
16.07.2019 06:00:00 11,2 9,3 9,2 14,0 17,3 18,2 5 3 9 5 WNW 1019,3 22 0 0,0
16.07.2019 05:00:00 11,9 9,4 9,0 14,5 17,5 18,2 4 2 9 5 NW 1019,2 30 0 0,0
16.07.2019 04:00:00 13,0 9,5 12,0 14,9 17,7 18,2 6 3 16 8 N 1019,4 33 0 0,0
16.07.2019 03:00:00 13,5 10,2 12,6 15,2 17,9 18,2 6 4 12 7 WNW 1019,5 28 0 0,0
16.07.2019 02:00:00 13,3 9,9 11,8 15,3 18,1 18,2 4 2 8 4 W 1019,5 26 0 0,0
16.07.2019 01:00:00 13,3 9,7 10,9 16,1 18,3 18,2 3 2 8 4 SW 1019,4 17 0 0,0
16.07.2019 00:00:00 14,4 10,3 13,7 16,7 18,5 18,2 4 2 8 4 W 1019,5 25 0 0,0
15.07.2019 23:00:00 14,5 10,2 13,9 17,1 18,7 18,2 4 2 6 3 W 1019,7 26 0 0,0
15.07.2019 22:00:00 14,8 10,4 14,3 17,6 18,8 18,2 3 2 8 4 WNW 1019,5 25 0 0,0
15.07.2019 21:00:00 15,4 10,1 15,4 18,2 19,0 18,2 5 3 10 6 N 1019,4 24 0 0,0
15.07.2019 20:00:00 15,6 9,8 15,8 18,9 19,0 18,3 9 5 15 8 N 1019,4 21 0 0,0
15.07.2019 19:00:00 16,2 9,5 16,9 19,9 19,0 18,3 8 5 18 10 NW 1019,5 24 0 0,0
15.07.2019 18:00:00 16,0 9,3 17,9 20,5 18,8 18,3 7 4 20 11 NNW 1019,7 13 0 0,0
15.07.2019 17:00:00 15,9 9,2 17,9 20,7 18,6 18,3 12 6 22 12 N 1019,9 13 0 0,0
15.07.2019 16:00:00 16,0 9,4 18,7 19,9 18,5 18,3 9 5 21 11 NNW 1019,8 16 0 0,0
15.07.2019 15:00:00 15,4 9,5 17,3 19,8 18,3 18,3 10 5 21 11 NNW 1020,0 10 0 0,0
15.07.2019 14:00:00 15,0 9,7 16,7 19,2 18,2 18,3 11 6 23 12 NW 1020,1 7 0 0,0
15.07.2019 13:00:00 15,3 9,3 17,1 19,0 18,1 18,3 9 5 25 14 NW 1019,9 8 0 0,0
15.07.2019 12:00:00 15,4 9,6 16,9 19,0 17,9 18,3 9 5 22 12 NW 1019,9 15 0 0,0
15.07.2019 11:00:00 15,4 8,8 17,1 18,2 17,7 18,3 10 5 19 11 NW 1019,7 23 0 0,0
15.07.2019 10:00:00 15,2 9,8 16,9 17,7 17,7 18,3 8 4 14 7 NW 1019,6 37 0 0,0
15.07.2019 09:00:00 14,3 10,3 15,1 16,5 17,7 18,3 8 4 16 8 NW 1019,6 25 0 0,0
15.07.2019 08:00:00 14,0 10,5 14,5 16,1 17,7 18,4 8 4 16 9 WNW 1019,4 27 0 0,0
15.07.2019 07:00:00 14,3 10,4 14,4 15,9 17,8 18,4 6 3 10 5 NW 1019,1 41 0 0,0
15.07.2019 06:00:00 14,2 10,5 13,9 15,8 18,0 18,4 5 3 10 6 NW 1018,9 38 0 0,0
15.07.2019 05:00:00 14,4 10,7 14,1 16,0 18,1 18,4 7 4 13 7 N 1018,9 42 0 0,0
15.07.2019 04:00:00 14,8 10,6 14,4 16,2 18,2 18,4 7 4 11 6 N 1019,1 53 0 0,0
15.07.2019 03:00:00 15,0 10,4 14,6 16,4 18,4 18,4 6 3 9 5 N 1019,2 57 0 0,0
15.07.2019 02:00:00 15,0 10,7 14,5 16,6 18,5 18,4 4 2 7 4 N 1019,3 50 0 0,0
15.07.2019 01:00:00 15,1 10,6 14,4 16,8 18,7 18,4 4 2 8 4 N 1019,6 68 0 0,0
15.07.2019 00:00:00 15,6 10,2 14,9 17,1 18,9 18,4 5 3 7 4 N 1019,4 68 0 0,0
14.07.2019 23:00:00 15,8 10,0 15,2 17,4 19,1 18,4 4 2 8 5 NNE 1019,4 70 0 0,0
14.07.2019 22:00:00 16,0 9,6 15,5 17,8 19,3 18,4 5 3 9 5 N 1019,3 70 0 0,0
14.07.2019 21:00:00 16,4 9,5 16,1 18,5 19,4 18,4 5 3 16 9 N 1019,2 65 0 0,0
14.07.2019 20:00:00 16,9 8,9 17,1 19,3 19,5 18,5 11 6 16 9 N 1019,2 68 0 0,0
14.07.2019 19:00:00 17,1 9,1 17,6 19,9 19,5 18,5 8 5 19 11 N 1019,0 47 0 0,0
14.07.2019 18:00:00 17,4 9,2 18,7 20,4 19,5 18,5 10 5 22 12 N 1019,0 37 0 0,0
14.07.2019 17:00:00 17,3 8,7 19,0 20,9 19,4 18,5 8 5 19 10 N 1019,1 42 0 0,0
14.07.2019 16:00:00 17,2 8,9 18,4 21,1 19,2 18,5 9 5 19 10 N 1019,2 36 0 0,0
14.07.2019 15:00:00 17,2 8,0 20,1 21,7 18,9 18,5 10 5 23 12 NNW 1019,3 38 0 0,0
14.07.2019 14:00:00 17,4 8,0 21,5 21,2 18,6 18,5 12 6 21 11 N 1019,5 38 5 0,0
14.07.2019 13:00:00 16,3 7,2 19,2 20,5 18,3 18,5 9 5 25 14 NNW 1019,8 27 4 0,0

tt = Température de l'air
td = dewpoint
tt 5cm = Température de l'air 5cm
tt -5cm = Température de l'air -5cm
tt -20cm = Température de l'air -20cm
tt -100cm = Température de l'air -100cm
ff = Vitesse du vent
fx = gusts
dd = Direction du vent
ppp = reduced air pressure
vv = visibility
sd = Ensoleillement
rr = Quantités de précipitations

stations d'obs. à proximité